TimeCDT,TemperatureF,Dew PointF,Humidity,Sea Level PressureIn,VisibilityMPH,Wind Direction,Wind SpeedMPH,Gust SpeedMPH,PrecipitationIn,Events,Conditions,WindDirDegrees,DateUTC
12:15 AM,65.3,49.3,56,30.10,10.0,NE,3.5,-,N/A,,Clear,40,2013-07-01 05:15:00
12:35 AM,62.8,49.8,63,30.10,10.0,East,3.5,-,N/A,,Clear,90,2013-07-01 05:35:00
12:55 AM,62.6,49.6,63,30.10,10.0,Calm,Calm,-,N/A,,Clear,0,2013-07-01 05:55:00
1:55 AM,62.2,49.1,62,30.10,10.0,Calm,Calm,-,N/A,,Clear,0,2013-07-01 06:55:00
2:15 AM,61.9,49.1,63,30.10,10.0,Calm,Calm,-,N/A,,Clear,0,2013-07-01 07:15:00
2:35 AM,60.6,49.5,67,30.10,10.0,ENE,4.6,-,N/A,,Clear,70,2013-07-01 07:35:00
2:55 AM,60.8,49.5,66,30.10,10.0,Calm,Calm,-,N/A,,Clear,0,2013-07-01 07:55:00
3:15 AM,60.8,49.6,67,30.10,10.0,Calm,Calm,-,N/A,,Clear,0,2013-07-01 08:15:00
3:35 AM,61.2,49.3,65,30.11,10.0,Calm,Calm,-,N/A,,Clear,0,2013-07-01 08:35:00
3:55 AM,60.3,49.1,67,30.11,10.0,ENE,3.5,-,N/A,,Clear,70,2013-07-01 08:55:00
4:15 AM,60.4,49.3,67,30.11,10.0,Calm,Calm,-,N/A,,Clear,0,2013-07-01 09:15:00
4:35 AM,59.9,49.1,67,30.11,10.0,Calm,Calm,-,N/A,,Clear,0,2013-07-01 09:35:00
4:55 AM,59.4,49.3,69,30.12,10.0,East,3.5,-,N/A,,Clear,80,2013-07-01 09:55:00
5:15 AM,59.4,49.1,69,30.13,10.0,ENE,3.5,-,N/A,,Clear,70,2013-07-01 10:15:00
5:35 AM,59.9,48.7,67,30.13,10.0,ENE,3.5,-,N/A,,Clear,60,2013-07-01 10:35:00
5:55 AM,59.2,48.7,68,30.14,10.0,ENE,3.5,-,N/A,,Clear,60,2013-07-01 10:55:00
6:15 AM,60.4,48.4,64,30.14,10.0,NE,5.8,-,N/A,,Clear,50,2013-07-01 11:15:00
6:35 AM,61.7,48.4,62,30.14,10.0,ENE,6.9,-,N/A,,Clear,60,2013-07-01 11:35:00
6:55 AM,62.2,49.3,63,30.15,10.0,NE,8.1,-,N/A,,Clear,50,2013-07-01 11:55:00
7:15 AM,63.1,50.0,62,30.15,10.0,NE,6.9,-,N/A,,Clear,50,2013-07-01 12:15:00
7:35 AM,64.0,49.8,60,30.16,10.0,NE,8.1,-,N/A,,Clear,50,2013-07-01 12:35:00
7:55 AM,65.3,50.5,59,30.16,10.0,NE,6.9,-,N/A,,Clear,50,2013-07-01 12:55:00
8:15 AM,66.6,49.8,55,30.17,10.0,ENE,6.9,-,N/A,,Clear,60,2013-07-01 13:15:00
8:35 AM,67.5,50.0,53,30.17,10.0,ENE,10.4,-,N/A,,Clear,60,2013-07-01 13:35:00
8:55 AM,68.5,49.5,50,30.17,10.0,ENE,10.4,-,N/A,,Clear,60,2013-07-01 13:55:00
9:15 AM,69.8,50.7,51,30.18,10.0,NE,11.5,-,N/A,,Clear,50,2013-07-01 14:15:00
9:35 AM,70.5,50.5,49,30.18,10.0,ENE,11.5,-,N/A,,Clear,70,2013-07-01 14:35:00
9:55 AM,71.2,50.0,47,30.18,10.0,NE,9.2,-,N/A,,Clear,50,2013-07-01 14:55:00
10:15 AM,71.8,48.6,44,30.18,10.0,NE,8.1,-,N/A,,Clear,50,2013-07-01 15:15:00
10:35 AM,72.5,46.8,40,30.18,10.0,NE,10.4,-,N/A,,Clear,50,2013-07-01 15:35:00
10:55 AM,73.6,49.3,42,30.18,10.0,NE,10.4,-,N/A,,Clear,50,2013-07-01 15:55:00
11:15 AM,73.8,48.9,41,30.18,10.0,NE,10.4,-,N/A,,Clear,50,2013-07-01 16:15:00
11:35 AM,74.7,48.7,40,30.18,10.0,ENE,8.1,-,N/A,,Clear,70,2013-07-01 16:35:00
11:55 AM,75.4,49.6,40,30.18,10.0,ENE,6.9,-,N/A,,Clear,70,2013-07-01 16:55:00
12:15 PM,76.1,49.6,39,30.18,10.0,NE,8.1,16.1,N/A,,Clear,40,2013-07-01 17:15:00
12:35 PM,76.3,49.5,39,30.17,10.0,NNE,9.2,-,N/A,,Clear,20,2013-07-01 17:35:00
12:55 PM,77.0,48.0,36,30.17,10.0,NE,11.5,-,N/A,,Clear,50,2013-07-01 17:55:00
1:15 PM,77.7,48.4,36,30.17,10.0,NE,11.5,-,N/A,,Clear,40,2013-07-01 18:15:00
1:35 PM,77.5,49.8,38,30.16,10.0,NE,10.4,-,N/A,,Clear,50,2013-07-01 18:35:00
1:55 PM,77.7,49.6,37,30.16,10.0,NE,10.4,-,N/A,,Clear,50,2013-07-01 18:55:00
2:15 PM,78.3,47.3,34,30.16,10.0,ENE,10.4,-,N/A,,Clear,60,2013-07-01 19:15:00
2:35 PM,78.8,50.0,36,30.15,10.0,NNE,13.8,-,N/A,,Clear,30,2013-07-01 19:35:00
2:55 PM,79.3,49.3,35,30.15,10.0,ENE,13.8,18.4,N/A,,Clear,60,2013-07-01 19:55:00
3:15 PM,79.0,46.6,32,30.15,10.0,NE,12.7,-,N/A,,Clear,40,2013-07-01 20:15:00
3:35 PM,79.2,48.4,34,30.15,10.0,NNE,12.7,17.3,N/A,,Clear,30,2013-07-01 20:35:00
3:55 PM,79.7,48.6,33,30.15,10.0,ENE,12.7,17.3,N/A,,Scattered Clouds,70,2013-07-01 20:55:00
4:15 PM,79.3,48.7,34,30.15,10.0,NNE,11.5,-,N/A,,Scattered Clouds,20,2013-07-01 21:15:00
4:35 PM,79.9,48.7,34,30.15,10.0,ENE,12.7,-,N/A,,Scattered Clouds,60,2013-07-01 21:35:00
4:55 PM,79.0,47.5,33,30.15,10.0,ENE,6.9,-,N/A,,Scattered Clouds,60,2013-07-01 21:55:00
5:15 PM,79.5,48.6,34,30.14,10.0,NE,8.1,-,N/A,,Scattered Clouds,50,2013-07-01 22:15:00
5:35 PM,79.5,48.6,34,30.14,10.0,NE,6.9,-,N/A,,Clear,50,2013-07-01 22:35:00
5:55 PM,77.9,50.0,38,30.14,10.0,NE,5.8,-,N/A,,Clear,40,2013-07-01 22:55:00
6:15 PM,78.8,48.0,34,30.14,10.0,NE,6.9,-,N/A,,Clear,40,2013-07-01 23:15:00
6:35 PM,78.6,48.7,35,30.14,10.0,East,5.8,-,N/A,,Clear,80,2013-07-01 23:35:00
6:55 PM,77.9,49.3,37,30.14,10.0,East,5.8,-,N/A,,Clear,80,2013-07-01 23:55:00
7:15 PM,77.2,49.8,38,30.14,10.0,East,3.5,-,N/A,,Clear,80,2013-07-02 00:15:00
7:35 PM,76.1,52.2,43,30.14,10.0,ENE,3.5,-,N/A,,Clear,70,2013-07-02 00:35:00
7:55 PM,74.7,55.6,51,30.14,10.0,ENE,3.5,-,N/A,,Scattered Clouds,70,2013-07-02 00:55:00
8:15 PM,73.4,55.2,53,30.13,10.0,Calm,Calm,-,N/A,,Scattered Clouds,0,2013-07-02 01:15:00
8:35 PM,72.9,53.4,50,30.14,10.0,Calm,Calm,-,N/A,,Scattered Clouds,0,2013-07-02 01:35:00
8:55 PM,70.9,56.3,60,30.14,10.0,Calm,Calm,-,N/A,,Mostly Cloudy,0,2013-07-02 01:55:00
9:15 PM,70.9,54.7,56,30.13,10.0,Calm,Calm,-,N/A,,Scattered Clouds,0,2013-07-02 02:15:00
9:35 PM,70.0,56.3,62,30.13,10.0,Calm,Calm,-,N/A,,Mostly Cloudy,0,2013-07-02 02:35:00
9:55 PM,67.6,56.5,67,30.15,10.0,North,9.2,-,N/A,,Overcast,360,2013-07-02 02:55:00
10:15 PM,69.3,55.4,61,30.14,10.0,NNE,3.5,-,N/A,,Overcast,30,2013-07-02 03:15:00
10:35 PM,68.9,55.4,62,30.14,10.0,Calm,Calm,-,N/A,,Overcast,0,2013-07-02 03:35:00
10:55 PM,68.4,55.6,64,30.14,10.0,SE,4.6,-,N/A,,Mostly Cloudy,130,2013-07-02 03:55:00
11:15 PM,68.5,55.4,63,30.14,10.0,SE,5.8,-,N/A,,Overcast,130,2013-07-02 04:15:00
11:35 PM,69.1,55.2,61,30.14,10.0,ESE,3.5,-,N/A,,Overcast,110,2013-07-02 04:35:00
11:55 PM,66.2,57.6,74,30.15,10.0,North,8.1,-,N/A,,Overcast,360,2013-07-02 04:55:00